User: anonymous
Location: Caltech
(34.1382°N, 118.1253°W)
Time: 07:52:58
(UTC-07:00)
Language:

IDEFIX/ARIANE 42P - Orbit

View from above orbital plane
View from above orbital plane
View from above satellite
View from above satellite

Ground track
Ground track

The orbit data is extracted from the following two-line orbital elements,

1 27422U 02021B   14111.17206899  .00000315  00000-0  14053-3 0  4666
2 27422 098.3059 156.3533 0013155 057.5070 009.8708 14.29000605621994
Epoch (UTC): 21 April 2014 04:07:46
Eccentricity: 0.0013155
inclination: 98.3059°
perigee height: 785 km
apogee height: 804 km
right ascension of ascending node: 156.3533°
argument of perigee: 57.5070°
revolutions per day: 14.29000605
mean anomaly at epoch: 9.8708°
orbit number at epoch: 62199

The dashed part of the orbit path shows where the satellite is in the earth's shadow,  

DLR